Location: Arthez
(43.0833°N, 0.2500°W)
Time: 00:16:19
(UTC+00:00)

Cosmos 371 Rocket - Pass Details

Date: 23 October 2021
Orbit: 684 x 699 km, 74.0° (Epoch: 06 December)

Event Time Altitude Azimuth Distance (km) Brightness Sun altitude
Rises 17:24:11 0° 175° (S) 3,052 6.7 -4.1°
Reaches altitude 10° 17:26:38 10° 166° (SSE) 2,142 5.8 -4.6°
Maximum altitude 17:30:58 34° 102° (ESE) 1,133 4.0 -5.4°
Drops below altitude 10° 17:35:22 10° 38° (NE) 2,165 5.4 -6.2°
Sets 17:37:51 0° 29° (NNE) 3,088 6.3 -6.6°
